Date String (YYYY-MM-DD hh:mm:ss) UTC,Instrument flags,Ambient pressure (hPa),Sample flow (lpm),Bypass flow (lpm),Sample temperature (°C),Ambient temperature (°C),ASC tube jacket temperature (°C),LED temperature (°C),Box temperature (°C),Sample RH (%),Span deviation,Mass concentration (μg/m³),Mass concentration (μg/m³),Mass concentration (μg/m³)
DateTimeUTC,F1_M11,P_M11,Q1_M11,Q2_M11,T1_M11,T2_M11,T3_M11,T4_M11,T5_M11,U1_M11,ZSPAN_M11,X0_M11,X2_M11,X1_M11
2022-05-15 16:00:00,,0832.2,5.00,0.00,30.0,29.0,00.0,38.8,31.8,15.4,0000.0,0015.06,0003.90,0002.71
2022-05-15 16:01:00,,0832.2,4.99,0.00,30.0,29.0,00.0,38.8,31.8,15.4,0000.0,0013.87,0003.95,0002.73
2022-05-15 16:02:00,,0832.2,5.01,0.00,30.0,29.0,00.0,38.8,31.8,15.4,0000.0,0015.17,0003.99,0002.77
2022-05-15 16:03:00,,0832.2,5.01,0.00,30.0,29.0,00.0,38.9,31.8,15.5,0000.0,0015.46,0003.97,0002.75
2022-05-15 16:04:00,,0832.2,5.00,0.00,30.0,28.9,00.0,38.9,31.8,15.5,0000.0,0015.43,0003.98,0002.74
2022-05-15 16:05:00,,0832.1,4.99,0.00,30.0,27.0,00.0,38.9,31.4,15.8,0000.0,0014.74,0003.92,0002.70
2022-05-15 16:06:00,,0832.2,5.01,0.00,29.8,25.5,00.0,38.8,31.1,15.7,0000.0,0014.19,0003.91,0002.68
2022-05-15 16:07:00,,0832.1,5.00,0.00,29.7,25.8,00.0,38.7,31.2,15.7,0000.0,0013.63,0003.88,0002.71
2022-05-15 16:08:00,,0832.1,4.99,0.00,29.7,26.3,00.0,38.7,31.2,15.8,0000.0,0013.39,0003.86,0002.72
2022-05-15 16:09:00,,0832.1,5.00,0.00,29.6,26.7,00.0,38.6,31.2,15.9,0000.0,0013.53,0003.91,0002.74
2022-05-15 16:10:00,,0832.1,5.01,0.00,29.6,27.1,00.0,38.6,31.2,15.6,0000.0,0013.76,0003.93,0002.80
2022-05-15 16:11:00,,0832.2,5.00,0.00,29.6,27.5,00.0,38.6,31.3,15.8,0000.0,0013.00,0003.90,0002.81
2022-05-15 16:12:00,,0832.1,5.00,0.00,29.6,27.7,00.0,38.6,31.3,15.7,0000.0,0012.62,0003.92,0002.81
2022-05-15 16:13:00,,0832.2,5.00,0.00,29.7,28.0,00.0,38.6,31.4,15.9,0000.0,0011.24,0003.87,0002.81
2022-05-15 16:14:00,,0832.2,5.00,0.00,29.7,28.2,00.0,38.6,31.4,16.1,0000.0,0010.76,0003.85,0002.83
2022-05-15 16:15:00,,0832.2,5.00,0.00,29.7,28.3,00.0,38.6,31.5,16.1,0000.0,0010.35,0003.84,0002.85
2022-05-15 16:16:00,,0832.1,5.00,0.00,29.7,28.4,00.0,38.6,31.5,15.5,0000.0,0010.27,0003.89,0002.89
2022-05-15 16:17:00,,0832.1,5.01,0.00,29.8,28.5,00.0,38.6,31.5,15.7,0000.0,0010.43,0003.89,0002.91
2022-05-15 16:18:00,,0832.2,4.99,0.00,29.8,28.6,00.0,38.6,31.6,15.8,0000.0,0011.29,0003.89,0002.90
2022-05-15 16:19:00,,0832.1,5.00,0.00,29.8,28.6,00.0,38.6,31.6,15.8,0000.0,0011.40,0003.90,0002.89
2022-05-15 16:20:00,,0832.1,5.01,0.00,29.8,28.7,00.0,38.7,31.6,15.7,0000.0,0011.09,0003.92,0002.89
2022-05-15 16:21:00,,0832.1,5.00,0.00,29.9,28.7,00.0,38.7,31.7,15.7,0000.0,0010.22,0003.92,0002.86
2022-05-15 16:22:00,,0832.1,5.00,0.00,29.9,28.8,00.0,38.7,31.7,16.0,0000.0,0010.17,0003.90,0002.83
2022-05-15 16:23:00,,0832.1,5.01,0.00,29.9,28.9,00.0,38.7,31.8,16.1,0000.0,0010.75,0003.89,0002.81
2022-05-15 16:24:00,,0832.1,4.99,0.00,30.0,29.0,00.0,38.7,31.8,15.6,0000.0,0011.22,0003.92,0002.79
2022-05-15 16:25:00,,0832.1,5.00,0.00,30.0,29.0,00.0,38.7,31.8,15.5,0000.0,0011.34,0003.97,0002.77
2022-05-15 16:26:00,,0832.1,5.01,0.00,30.0,29.1,00.0,38.8,31.8,15.6,0000.0,0011.67,0004.04,0002.79
2022-05-15 16:27:00,,0832.1,4.99,0.00,30.0,29.1,00.0,38.8,31.9,16.1,0000.0,0011.90,0004.04,0002.80
2022-05-15 16:28:00,,0832.1,4.99,0.00,30.1,29.1,00.0,38.8,31.9,15.6,0000.0,0011.88,0004.02,0002.78
2022-05-15 16:29:00,,0832.1,5.00,0.00,30.1,28.2,00.0,38.9,31.7,15.8,0000.0,0011.67,0004.06,0002.76
2022-05-15 16:30:00,,0832.1,5.01,0.00,29.9,26.0,00.0,38.8,31.3,15.8,0000.0,0011.84,0004.06,0002.77
2022-05-15 16:31:00,,0832.1,5.00,0.00,29.8,25.6,00.0,38.8,31.2,16.1,0000.0,0012.31,0004.09,0002.80
2022-05-15 16:32:00,,0832.1,5.01,0.00,29.8,26.1,00.0,38.7,31.3,15.7,0000.0,0013.24,0004.10,0002.83
2022-05-15 16:33:00,,0832.1,4.99,0.00,29.7,26.5,00.0,38.7,31.3,16.0,0000.0,0013.77,0004.13,0002.85
2022-05-15 16:34:00,,0832.1,5.00,0.00,29.7,26.9,00.0,38.7,31.3,15.7,0000.0,0013.31,0004.11,0002.88
2022-05-15 16:35:00,,0832.1,4.99,0.00,29.7,27.3,00.0,38.7,31.3,15.5,0000.0,0012.92,0004.11,0002.91
2022-05-15 16:36:00,,0832.1,5.00,0.00,29.7,27.5,00.0,38.6,31.4,15.7,0000.0,0013.11,0004.14,0002.97
2022-05-15 16:37:00,,0832.1,5.01,0.00,29.7,27.8,00.0,38.6,31.4,16.0,0000.0,0013.24,0004.12,0002.96
2022-05-15 16:38:00,,0832.1,5.00,0.00,29.7,28.0,00.0,38.6,31.4,15.9,0000.0,0013.06,0004.13,0002.98
2022-05-15 16:39:00,,0832.1,5.01,0.00,29.7,28.2,00.0,38.6,31.5,15.9,0000.0,0012.83,0004.18,0003.01
2022-05-15 16:40:00,,0832.1,5.00,0.00,29.7,28.3,00.0,38.6,31.5,15.7,0000.0,0012.39,0004.18,0003.04
2022-05-15 16:41:00,,0832.1,4.99,0.00,29.7,28.3,00.0,38.6,31.5,15.7,0000.0,0012.13,0004.24,0003.07
2022-05-15 16:42:00,,0832.0,5.00,0.00,29.7,28.5,00.0,38.6,31.5,15.7,0000.0,0012.05,0004.23,0003.08
2022-05-15 16:43:00,,0832.1,5.01,0.00,29.8,28.6,00.0,38.6,31.6,16.0,0000.0,0011.44,0004.27,0003.10
2022-05-15 16:44:00,,0832.1,5.00,0.00,29.8,28.7,00.0,38.7,31.6,15.8,0000.0,0011.30,0004.27,0003.12
2022-05-15 16:45:00,,0832.1,5.01,0.00,29.8,28.7,00.0,38.7,31.7,15.9,0000.0,0012.29,0004.29,0003.10
2022-05-15 16:46:00,,0832.1,4.99,0.00,29.8,28.8,00.0,38.7,31.7,15.8,0000.0,0012.25,0004.29,0003.08
2022-05-15 16:47:00,,0832.1,5.00,0.00,29.9,28.8,00.0,38.7,31.7,16.2,0000.0,0012.02,0004.23,0003.03
2022-05-15 16:48:00,,0832.1,5.00,0.00,29.9,28.8,00.0,38.7,31.7,16.0,0000.0,0011.73,0004.20,0002.99
2022-05-15 16:49:00,,0832.1,5.00,0.00,29.9,28.8,00.0,38.7,31.8,16.1,0000.0,0011.76,0004.19,0002.94
2022-05-15 16:50:00,,0832.1,5.00,0.00,29.9,28.9,00.0,38.8,31.7,15.9,0000.0,0011.96,0004.14,0002.90
2022-05-15 16:51:00,,0832.1,5.00,0.00,29.9,28.9,00.0,38.8,31.7,15.9,0000.0,0012.37,0004.13,0002.91
2022-05-15 16:52:00,,0832.1,5.00,0.00,29.9,28.7,00.0,38.8,31.7,15.8,0000.0,0013.10,0004.04,0002.88
2022-05-15 16:53:00,,0832.1,5.01,0.00,29.8,26.7,00.0,38.8,31.3,15.8,0000.0,0013.90,0004.02,0002.86
2022-05-15 16:54:00,,0832.0,5.00,0.00,29.7,25.3,00.0,38.7,31.0,16.1,0000.0,0014.36,0004.00,0002.83
2022-05-15 16:55:00,,0832.1,5.00,0.00,29.6,25.6,00.0,38.7,31.0,16.2,0000.0,0014.16,0003.99,0002.83
2022-05-15 16:56:00,,0832.0,4.99,0.00,29.5,26.1,00.0,38.6,31.1,16.4,0000.0,0014.19,0004.01,0002.85
2022-05-15 16:57:00,,0832.0,5.01,0.00,29.5,26.6,00.0,38.6,31.1,16.5,0000.0,0014.65,0004.00,0002.85
2022-05-15 16:58:00,,0832.0,5.01,0.00,29.5,27.0,00.0,38.5,31.1,16.6,0000.0,0014.62,0003.98,0002.86
2022-05-15 16:59:00,,0832.0,5.00,0.00,29.5,27.3,00.0,38.5,31.2,16.3,0000.0,0014.90,0004.03,0002.88
